Lexington Weather

Lexington, Massachusetts, USA

40°F
3/30/2020 9:40am 
  • Lexington Conditions: Mist, Overcast
  • Temperature: 40.3°F / 4.6°CWarmer 0.9°F than last hour.
  • Dew Point: 39.6°FIncreased 0.9°Fsince last hour.
  • Relative Humidity: 97
  • Wind: Wind from NE NE Calm, 10-min avg: 2 mph, gust: 8 mph
  • Barometer: 29.97 in Steady
  • Visibility: 2 miles
  • Rain Today: 0.02 in
  •   

Regional Weather Roundup
for Boston / Norton, MA

        
000
ASUS41 KBOX 271704
RWRBOX

REGIONAL WEATHER ROUNDUP
NATIONAL WEATHER SERVICE BOSTON/NORTON MA
100 PM EDT FRI MAR 27 2020

NOTE:  "FAIR" INDICATES FEW OR NO CLOUDS BELOW 12,000 FEET WITH NO 
SIGNIFICANT WEATHER AND/OR OBSTRUCTIONS TO VISIBILITY.

MAZALL-271800-
EASTERN MASSACHUSETTS
  
CITY           SKY/WX    TMP DP  RH WIND       PRES   REMARKS
BOSTON         FAIR      58  21  24 N21G30    29.78R                  
BEVERLY        FAIR      58  27  30 NW16G26   29.76S                  
LAWRENCE       FAIR      57  25  29 NW14G29   29.79R                  
BEDFORD        FAIR      61  23  23 N17G24    29.77S                  
BLUE HILL        N/A     57  22  25 NW14G25   29.76R                  
NORWOOD        FAIR      62  21  20 NW15G24   29.78R                  
MARSHFIELD     FAIR      61  27  27 NW10G18   29.76R                  
PLYMOUTH       FAIR      61  26  26 NW14G23   29.76R                  
TAUNTON        FAIR      62  24  23 W12G21    29.76S                  
NEW BEDFORD    FAIR      61  22  22 N10G20    29.76R                  
$$

MAZALL-271800-
CAPE COD AND THE ISLANDS
  
CITY           SKY/WX    TMP DP  RH WIND       PRES   REMARKS
FALMOUTH       NOT AVBL                                               
HYANNIS        FAIR      57  30  35 N17G24    29.74S                  
CHATHAM        FAIR      56  29  35 NW10G21   29.77S                  
PROVINCETOWN   FAIR      51  36  56 NW8       29.78R                  
NANTUCKET      FAIR      58  42  55 NW10      29.76S                  
MARTHAS VNYRD  FAIR      62  35  36 W13       29.75F                  
$$
 
MAZALL-271800-
CENTRAL AND WESTERN MASSACHUSETTS
  
CITY           SKY/WX    TMP DP  RH WIND       PRES   REMARKS
WORCESTER      FAIR      55  21  26 NW14G26   29.80R                  
FITCHBURG      FAIR      59  25  27 NW15      29.80R                  
ORANGE         FAIR      58  25  28 NW10G25   29.83R                  
SPRINGFIELD    MOSUNNY   60  23  24 NW13G28   29.80S                  
WESTFIELD      FAIR      60  23  24 NW16      29.82S                  
NORTH ADAMS    FAIR      52  30  43 NW9G16    29.87R                  
PITTSFIELD     FAIR      53  28  38 NW15G21   29.85R                  
$$
 
RIZALL-271800-
RHODE ISLAND
  
CITY           SKY/WX    TMP DP  RH WIND       PRES   REMARKS
PROVIDENCE     PTSUNNY   62  24  23 VRB7G21   29.78S                  
NEWPORT        FAIR      62  26  25 N14       29.77R                  
BLOCK ISLAND   FAIR      56  40  55 W8        29.79S                  
SMITHFIELD     FAIR      58  22  24 NW20G26   29.78R                  
WESTERLY       FAIR      66  23  19 N15G25    29.78S                  
$$
 
CTZALL-271800-
CONNECTICUT
  
CITY           SKY/WX    TMP DP  RH WIND       PRES   REMARKS
BRADLEY INTL   FAIR      63  26  24 NW17G25   29.82S                  
HARTFORD       FAIR      61  28  28 N9G22     29.82S                  
BRIDGEPORT     FAIR      63  29  27 NW10G21   29.82S                  
DANBURY        FAIR      58  27  30 NW12G23   29.86R                  
GROTON         FAIR      63  31  30 N14       29.78F                  
NEW HAVEN      FAIR      64  28  25 N10G22    29.82R                  
CHESTER        FAIR      63  27  25 N12G21    29.81S                  
MERIDEN        FAIR      60  30  32 NW10G17   29.82F                  
WILLIMANTIC    FAIR      62  25  24 N17G24    29.80R                  
OXFORD         FAIR      57  32  38 N15       29.83S                  
$$

MEZ002-015-021-024-NHZ003-005-008-011-012-014-VTZ005-008-271800-
NORTHERN NEW ENGLAND
  
CITY           SKY/WX    TMP DP  RH WIND       PRES   REMARKS
PORTLAND ME    FAIR      54  29  38 NW18G31   29.75R                  
BANGOR ME      PTSUNNY   43  28  55 N21       29.71R                  
CONCORD NH     FAIR      56  24  29 NW13G22   29.80R                  
MANCHESTER NH  FAIR      58  20  22 NW16G25   29.78R                  
NASHUA NH      FAIR      57  23  26 NW14G25   29.80R                  
PORTSMOUTH NH  MOSUNNY   59  18  20 NW23G29   29.74R                  
JAFFREY NH     FAIR      55  29  36 N12G20    29.80R                  
KEENE NH       FAIR      54  26  34 N21       29.82R                  
BURLINGTON VT  FAIR      47  29  49 NE12      29.91F                  
MT. WASHINGTON FOG       18  18 100 NW58G68     N/A  VSB 1/16WCI  -7  
$$

NYZ052-076-271800-
EASTERN NEW YORK
  
CITY           SKY/WX    TMP DP  RH WIND       PRES   REMARKS
ALBANY         FAIR      54  31  41 W16       29.91R                  
NEW YORK CITY  FAIR      62  33  33 N12G21    29.84R                  
$$
 
ANZALL-271800-
MARINE OBSERVATIONS
  
STATION/POSITION TIME  TEMP    WIND        PRES    VSBY  WAVE
                       AIR SEA DIR/SP/G                  HT/PER
                 (UTC) (F)     (DEG/KT/KT) (MB)    (MI)  (FT/S)
BOSTON BUOY      1650   49 43  330/  8/ 12 1007.5R         6/12
BUZZARDS BAY     1600          320/ 11/ 12 1009.1S
NANTUCKET SOUND  1640                        N/A           1/ 6
MASS BAY-STELLWA 1604   48 41  340/ 14/ 17 1005.6R  1 7/8  6/11
ISLE OF SHOALS   1600   50     300/ 16/ 17 1006.5R
S OF BLOCK IS    1630      44                N/A           5/11
$$

......................KEY.........................
  SKY/WX - SKY CONDITION/PRESENT WEATHER
  TMP    - TEMPERATURE IN FAHRENHEIT
  DWPT   - DEWPOINT IN FAHRENHEIT
  RH     - RELATIVE HUMIDITY IN PERCENT
  WIND   - DIRECTION AND SPEED IN MPH
  PRES   - MEAN SEA LEVEL PRESSURE IN INCHES OF HG
  WCI    - WIND CHILL INDEX
  VSB    - VISIBILITY IN MILES
  HX     - HEAT INDEX
  TC     - TEMPERATURE IN CELSIUS
  VRB    - VARIABLE WIND DIRECTION
  N/A    - NOT AVAILABLE
  
      

Other recent Regional Weather Roundups

Mon Mar 30, 9:04am

Mon Mar 30, 8:04am

Mon Mar 30, 7:04am

Mon Mar 30, 6:04am

Mon Mar 30, 5:04am

Mon Mar 30, 4:04am

Mon Mar 30, 3:05am

Mon Mar 30, 2:04am

Mon Mar 30, 1:04am

Mon Mar 30, 12:04am

Sun Mar 29, 11:04pm

Sun Mar 29, 10:05pm

Sun Mar 29, 9:04pm

Sun Mar 29, 8:04pm

Sun Mar 29, 7:04pm

Sun Mar 29, 6:04pm

Sun Mar 29, 5:05pm

Sun Mar 29, 4:04pm

Sun Mar 29, 3:04pm

Sun Mar 29, 2:04pm

Sun Mar 29, 1:05pm

Sun Mar 29, 12:04pm

Sun Mar 29, 11:04am

Sun Mar 29, 10:04am

Sun Mar 29, 9:04am

Sun Mar 29, 8:04am

Sun Mar 29, 7:04am

Sun Mar 29, 6:04am

Sun Mar 29, 5:04am

Sun Mar 29, 4:04am

Sun Mar 29, 3:04am

Sun Mar 29, 2:04am

Sun Mar 29, 1:04am

Sun Mar 29, 12:04am

Sat Mar 28, 11:05pm

Sat Mar 28, 10:04pm

Sat Mar 28, 9:04pm

Sat Mar 28, 8:04pm

Sat Mar 28, 7:04pm

Sat Mar 28, 6:04pm

Sat Mar 28, 5:05pm

Sat Mar 28, 4:04pm

Sat Mar 28, 3:04pm

Sat Mar 28, 2:04pm

Sat Mar 28, 1:05pm

Sat Mar 28, 12:04pm

Sat Mar 28, 11:04am

Sat Mar 28, 10:04am

Sat Mar 28, 9:04am

Sat Mar 28, 8:04am

Sat Mar 28, 7:04am

Sat Mar 28, 6:04am

Sat Mar 28, 5:04am

Sat Mar 28, 4:04am

Sat Mar 28, 3:04am

Sat Mar 28, 2:04am

Sat Mar 28, 1:04am

Sat Mar 28, 12:04am

Fri Mar 27, 11:04pm

Fri Mar 27, 10:04pm

Fri Mar 27, 9:04pm

Fri Mar 27, 8:04pm

Fri Mar 27, 7:05pm

Fri Mar 27, 6:04pm

Fri Mar 27, 5:05pm

Fri Mar 27, 4:05pm

Fri Mar 27, 3:04pm

Fri Mar 27, 2:05pm

Fri Mar 27, 12:04pm

Fri Mar 27, 11:04am

Fri Mar 27, 10:04am

Meta data:

ID: 90b46f74-cfc7-463e-ad5e-591290015ac6
Link: https://api.weather.gov/products/90b46f74-cfc7-463e-ad5e-591290015ac6